Simultaneous Nadir Overpasses (SNOs) Predictions

Prediction of SNOs between GOES-17 and NOAA-20 Satellite Orbit:

Table of predicted SNOs for the next 14.0 days since TLE Epoch: 12/31/2022
Index Date Time (GOES-17) GOES-17 Lat,Lon NOAA-20 Lat,Lon Distance(km) Time Diff (sec)
1 12/31/2022 22:24:03 -0.01,-137.33 0.62,-134.55 317.46 80
2 01/02/2023 10:45:52 0.02,-137.33 0.57,-139.81 283.57 80
3 01/03/2023 10:24:27 0.02,-137.32 -0.42,-135.28 231.92 80
4 01/04/2023 22:46:24 -0.02,-137.30 -0.75,-140.59 374.60 80
5 01/05/2023 22:30:20 -0.02,-137.29 0.25,-136.06 140.52 80
6 01/07/2023 10:52:08 0.02,-137.28 0.93,-141.32 461.73 80
7 01/08/2023 10:30:44 0.01,-137.26 -0.06,-136.79 53.06 80
8 01/10/2023 22:36:37 -0.00,-137.22 -0.10,-137.57 40.10 80
9 01/11/2023 22:15:12 0.00,-137.20 0.91,-133.03 474.38 80
10 01/13/2023 10:39:41 -0.00,-137.18 0.27,-138.31 128.67 80
